Location: Derby
(52.9213°N, 1.4761°W)
Time: 03:00:37
(UTC+01:00)

A-11 Canister half - Pass Details

Date: 25 May 2025
Orbit: 1524 x 1684 km, 47.3° (Epoch: 12 June)

Event Time Altitude Azimuth Distance (km) Brightness Sun altitude
Rises 22:05:58 0° 270° (W) 4,722 12.2 -6.6°
Reaches altitude 10° 22:09:02 10° 267° (W) 3,756 11.6 -6.9°
Maximum altitude 22:18:20 60° 191° (SSW) 1,789 9.2 -7.8°
Drops below altitude 10° 22:27:58 10° 115° (ESE) 3,876 10.6 -8.7°
Enters shadow 22:30:06 - 113° (ESE) 4,543 10.9 -8.9°
